Location: Detroit
(42.3310°N, 83.0460°W)
Time: 00:56:12
(UTC-04:00)

A-11 Canister half - Pass Details

Date: 15 February 2023
Orbit: 1526 x 1682 km, 47.3° (Epoch: 20 March)

Event Time Altitude Azimuth Distance (km) Brightness Sun altitude
Rises 01:23:27 0° 201° (SSW) 4,739 - -59.3°
Reaches altitude 10° 01:26:57 10° 192° (SSW) 3,737 - -59.1°
Maximum altitude 01:34:57 33° 133° (SE) 2,379 - -58.6°
Exits shadow 01:42:49 10° 74° (ENE) 3,689 11.2 -58.0°
Drops below altitude 10° 01:42:50 10° 74° (ENE) 3,696 11.2 -58.0°
Sets 01:46:15 0° 65° (ENE) 4,680 11.9 -57.7°
